This is the latest recevied weather packets stored in our database for station/object K5NWZ. If no packets are shown the sender has not sent any weather packets the latest 10 day(s).
| Time | Temp. | Humidity | Pressure | Rain* | Wind** | Luminosity | Snow |
|---|---|---|---|---|---|---|---|
| 1787632668 | 23.33° C | 49% | 1033 hPa | 0 mm | - | 0 W/m² | - |
| 1787632363 | 23.89° C | 49% | 1032.9 hPa | 0 mm | - | 0 W/m² | - |
| 1787632062 | 23.89° C | 49% | 1033 hPa | 0 mm | - | 0 W/m² | - |
| 1787631758 | 23.89° C | 48% | 1032.7 hPa | 0 mm | - | 0 W/m² | - |
| 1787631454 | 23.89° C | 48% | 1032.5 hPa | 0 mm | - | 0 W/m² | - |
| 1787631150 | 24.44° C | 47% | 1032.5 hPa | 0 mm | - | 0 W/m² | - |
| 1787630849 | 23.89° C | 49% | 1032.9 hPa | 0 mm | - | 0 W/m² | - |
| 1787630545 | 23.89° C | 48% | 1032.7 hPa | 0 mm | - | 0 W/m² | - |
| 1787630245 | 23.89° C | 47% | 1032.7 hPa | 0 mm | - | 0 W/m² | - |
| 1787629940 | 23.89° C | 47% | 1032.6 hPa | 0 mm | - | 0 W/m² | - |
| 1787629635 | 24.44° C | 46% | 1032.7 hPa | 0 mm | - | 0 W/m² | - |
| 1787629331 | 24.44° C | 46% | 1032.6 hPa | 0 mm | - | 0 W/m² | - |
| 1787629026 | 25° C | 45% | 1032.7 hPa | 0 mm | - | 0 W/m² | - |
| 1787628721 | 25° C | 44% | 1032.6 hPa | 0 mm | - | 0 W/m² | - |
| 1787628417 | 25° C | 44% | 1032.4 hPa | 0 mm | - | 0 W/m² | - |
| 1787628112 | 25° C | 44% | 1032.2 hPa | 0 mm | - | 0 W/m² | - |
| 1787627807 | 25° C | 43% | 1032.3 hPa | 0 mm | - | 0 W/m² | - |
| 1787627503 | 24.44° C | 45% | 1032.3 hPa | 0 mm | - | 0 W/m² | - |
| 1787627198 | 24.44° C | 47% | 1032.2 hPa | 0 mm | - | 0 W/m² | - |
| 1787626895 | 24.44° C | 47% | 1032.4 hPa | 0 mm | - | 0 W/m² | - |
| 1787626594 | 24.44° C | 47% | 1032 hPa | 0 mm | - | 0 W/m² | - |
| 1787626289 | 24.44° C | 46% | 1032.4 hPa | 0 mm | - | 0 W/m² | - |
| 1787625988 | 24.44° C | 45% | 1032.2 hPa | 0 mm | - | 0 W/m² | - |
| 1787625685 | 24.44° C | 46% | 1032 hPa | 0 mm | - | 0 W/m² | - |
| 1787625380 | 25° C | 46% | 1031.9 hPa | 0 mm | - | 0 W/m² | - |
* Rain latest hour (hover to see other rain measurements)
** Current wind speed in m/s (hover to see current wind gust speed)